Regional Weather Roundup
Issued by NWS Midland/Odessa, TX

Skip options and go directly to product.
Home | Oldest Version | Previous Version | Current Version | All | Graphics & Text | Save Text | Print | Product List | Glossary On

Skip product version selection by date and time.   
913
ASUS44 KMAF 250810
RWRMAF
MIDLAND AREA WEATHER ROUNDUP
NATIONAL WEATHER SERVICE MIDLAND TX
300 AM CDT SAT OCT 25 2014

...IN SOUTHWEST TEXAS AND SOUTHEAST NEW MEXICO...

CITY           SKY/WX    TMP DP  RH WIND       PRES   REMARKS
ALPINE         CLEAR     58  52  78 SW7       30.31S
ANDREWS        FAIR      62  56  83 SW9       30.18S
ARTESIA        NOT AVBL
BIG SPRING     CLEAR     64  58  83 SE7       30.19S
CARLSBAD       CLEAR     58  52  80 NW6       30.15S
DRYDEN           N/A     64  61  90 N8        30.14S
FORT STOCKTON  CLEAR     63  58  83 S9        30.17S
GUAD PASS      CLEAR     62  46  55 W10       30.30F
HOBBS          CLEAR     55  50  82 S6        30.21S
MARFA          CLEAR     50  48  93 NW6       30.30S
MIDLAND AIRPK  CLEAR     66  58  76 S7        30.18S
MIDLAND INTL   CLEAR     63  54  72 SW5       30.17S
ODESSA         CLEAR     65  58  78 S9        30.18S
PECOS          CLEAR     59  53  81 CALM      30.14S
PRESIDIO       FAIR      68  52  57 MISG      30.16S
SEMINOLE       CLEAR     56  52  85 SW3       30.20S
SNYDER         CLEAR     59  54  83 SW6       30.16S
WINK           CLEAR     62  55  77 E5        30.15R
$$
...OTHER STATIONS IN TEXAS...

CITY           SKY/WX    TMP DP  RH WIND       PRES   REMARKS
ABILENE        CLEAR     68  55  63 SW5       30.13S
AMARILLO       CLEAR     59  46  62 SW10      30.15S
AUSTIN         CLEAR     56  56 100 CALM      30.14F
BROWNSVILLE    CLEAR     67  65  93 NW3       30.11F
CORPUS CHRISTI CLEAR     64  61  90 W5        30.13S
DALLAS FTW     PTCLDY    67  58  72 S9        30.09S
DEL RIO        CLEAR     67  62  84 E6        30.12S
EL PASO        CLEAR     63  48  58 CALM      30.20S
HOUSTON INT    CLEAR     59  57  93 CALM      30.13S
LUBBOCK        CLEAR     56  48  74 S6        30.17R
SAN ANGELO     CLEAR     62  56  80 W5        30.15R
SAN ANTONIO    CLEAR     70  59  68 S3        30.16S
WACO           CLEAR     64  58  80 S9        30.12S
WICHITA FALLS  NOT AVBL
$$
...OTHER LOCATIONS IN NEW MEXICO...

CITY           SKY/WX    TMP DP  RH WIND       PRES   REMARKS
ALAMAGORDO     NOT AVBL
ALBUQUERQUE    CLEAR     59  36  42 CALM      30.29S
CANNON AFB     CLEAR     60  48  65 W7        30.20S
CLOVIS         CLEAR     57  45  62 W10       30.22S
HOLLOMAN AFB   PTCLDY    55  46  71 CALM      30.21S
ROSWELL        CLEAR     57  52  83 CALM      30.17S
RUIDOSO        CLEAR     50  36  57 W8        30.39R
SANTA FE       CLEAR     47  23  38 N9        30.33S
TRUTH OR CONSE CLEAR     59  45  59 W8        30.26R
TUCUMCARI      CLEAR     63  48  58 SW9       30.15S
$$

USA.gov is the U.S. government's official web portal to all federal, state and local government web resources and services.